Regional Weather Roundup
Issued by NWS Goodland, KS

Home | Current Version | Previous Version | Text Only | Print | Product List | Glossary Off
Versions: 1 2 3 4 5 6 7 8 9 10 11 12 13 14 15 16 17 18 19 20 21 22 23 24 25 26 27 28 29 30 31 32 33 34 35 36 37 38 39 40 41 42 43 44 45 46 47 48 49 50

000
ASUS43 KGLD 261608
RWRGLD

GOODLAND FORECAST AREA HOURLY WEATHER ROUNDUP
NATIONAL WEATHER SERVICE GOODLAND KS
1000 AM MDT MON JUN 26 2017

...OFFICIAL OBSERVATIONS...

CITY           SKY/WX    TMP DP  RH WIND       PRES   REMARKS
GOODLAND KS    SUNNY     71  62  73 W6        30.21F
HILL CITY KS   MOSUNNY   69  62  78 W8        30.20F
IMPERIAL NEB   SUNNY     71  57  61 N7        30.21F
MCCOOK NEB     PTSUNNY   71  59  65 CALM      30.19F
AKRON CO       SUNNY     75  53  46 SE3       30.24F
BURLINGTON CO  SUNNY     73  61  65 W7        30.24F
LIMON CO       SUNNY     74  55  51 S12       30.27F
$$

...UNOFFICIAL OBSERVATIONS...

CITY           SKY/WX    TMP DP  RH WIND       PRES   REMARKS
LENORA KS        N/A     67  32  27 MISG        N/A
NORTON KS      SUNNY     73  54  49 CALM      30.18F
SHARON SPRINGS   N/A     72  63  73 CALM        N/A
TRENTON NEB      N/A     70  32  24 CALM        N/A
KIT CARSON CO    N/A     71  59  66 MISG        N/A
YUMA CO        FAIR      72  52  49 CALM      30.22F
$$




USA.gov is the U.S. government's official web portal to all federal, state and local government web resources and services.